TimeEST,TemperatureF,Dew PointF,Humidity,Sea Level PressureIn,VisibilityMPH,Wind Direction,Wind SpeedMPH,Gust SpeedMPH,PrecipitationIn,Events,Conditions,WindDirDegrees,DateUTC
12:55 AM,54.5,50.9,88,30.35,10.0,Calm,Calm,-,N/A,,Overcast,0,2012-11-11 05:55:00
1:55 AM,55.8,51.6,86,30.34,10.0,Calm,Calm,-,N/A,,Scattered Clouds,0,2012-11-11 06:55:00
2:55 AM,55.6,51.8,87,30.33,10.0,Calm,Calm,-,N/A,,Overcast,0,2012-11-11 07:55:00
3:55 AM,55.2,51.4,87,30.34,10.0,Calm,Calm,-,N/A,,Mostly Cloudy,0,2012-11-11 08:55:00
4:55 AM,55.6,51.3,85,30.34,10.0,Calm,Calm,-,N/A,,Scattered Clouds,0,2012-11-11 09:55:00
5:55 AM,56.3,52.2,86,30.35,10.0,Calm,Calm,-,N/A,,Overcast,0,2012-11-11 10:55:00
6:55 AM,56.1,52.2,87,30.36,10.0,Calm,Calm,-,N/A,,Overcast,0,2012-11-11 11:55:00
7:55 AM,59.2,54.3,84,30.39,10.0,NNE,3.5,-,N/A,,Mostly Cloudy,20,2012-11-11 12:55:00
8:55 AM,62.4,55.6,78,30.40,10.0,NE,4.6,-,N/A,,Overcast,50,2012-11-11 13:55:00
9:55 AM,68.2,57.2,68,30.40,10.0,ENE,5.8,-,N/A,,Overcast,60,2012-11-11 14:55:00
10:55 AM,73.2,58.1,59,30.40,10.0,East,8.1,-,N/A,,Clear,90,2012-11-11 15:55:00
11:55 AM,73.6,59.2,61,30.39,10.0,East,6.9,-,N/A,,Mostly Cloudy,80,2012-11-11 16:55:00
12:55 PM,73.8,57.9,58,30.37,10.0,East,9.2,-,N/A,,Overcast,80,2012-11-11 17:55:00
1:55 PM,75.6,59.0,56,30.35,10.0,ENE,6.9,-,N/A,,Mostly Cloudy,70,2012-11-11 18:55:00
2:55 PM,75.0,60.8,61,30.34,10.0,ENE,9.2,-,N/A,,Partly Cloudy,70,2012-11-11 19:55:00
3:55 PM,70.2,61.3,74,30.33,10.0,ENE,8.1,-,N/A,,Overcast,70,2012-11-11 20:55:00
4:55 PM,69.6,61.0,74,30.34,10.0,ENE,5.8,-,N/A,,Overcast,70,2012-11-11 21:55:00
5:41 PM,68.0,62.6,83,30.34,10.0,East,10.4,-,N/A,,Light Drizzle,80,2012-11-11 22:41:00
5:53 PM,66.2,62.6,88,30.33,10.0,East,6.9,-,N/A,,Overcast,80,2012-11-11 22:53:00
5:55 PM,66.7,62.2,85,30.33,10.0,East,6.9,-,0.00,,Overcast,80,2012-11-11 22:55:00
6:55 PM,66.2,61.9,86,30.35,10.0,Calm,Calm,-,N/A,,Overcast,0,2012-11-11 23:55:00
7:17 PM,66.2,60.8,83,30.35,10.0,ENE,5.8,-,N/A,Rain,Light Rain,70,2012-11-12 00:17:00
7:27 PM,66.2,62.6,88,30.35,10.0,ENE,5.8,-,N/A,,Overcast,60,2012-11-12 00:27:00
7:55 PM,64.8,60.6,86,30.35,10.0,East,4.6,-,0.00,,Scattered Clouds,80,2012-11-12 00:55:00
8:55 PM,62.2,59.5,91,30.34,10.0,ENE,3.5,-,N/A,,Clear,70,2012-11-12 01:55:00
9:55 PM,61.5,59.7,94,30.34,10.0,Calm,Calm,-,N/A,,Clear,0,2012-11-12 02:55:00
10:55 PM,60.4,59.5,97,30.33,10.0,Calm,Calm,-,N/A,,Clear,0,2012-11-12 03:55:00
11:55 PM,60.4,59.7,97,30.32,10.0,Calm,Calm,-,N/A,,Partly Cloudy,0,2012-11-12 04:55:00